Location: Liscomb Game Sanctuary
(45.1633°N, 62.5575°W)
Time: 10:25:05
(UTC-03:00)

Amateur Radio Satellites - All Passes

Search period start: 25 October 2014 09:55
Search period end: 26 October 2014 09:55
Location: Liscomb Game Sanctuary, 45.1633°N, 62.5575°W

Satellite Date Start Highest point End Downlink Frequencies (MHz)
Time Altitude Azimuth
Saudisat 1A 25 Oct 09:56:04 09:59:16 19° 323° (NW) 10:02:29 436.775 MHz
MaSat-1 25 Oct 10:03:20 10:05:32 24° 250° (WSW) 10:07:35 437.345 MHz
HO-68 25 Oct 10:26:44 10:33:59 82° 106° (ESE) 10:41:11 435.675 MHz FM
ZACube-1 25 Oct 10:28:05 10:30:35 15° 90° (E) 10:33:04 437.345 MHz
UKube-1 25 Oct 10:31:22 10:35:29 39° 99° (E) 10:39:35 145.840 MHz, 145.915 MHz
FUNcube-1 25 Oct 11:11:33 11:15:38 43° 98° (E) 11:19:37 145.950 - 145.970 MHz USB
Oscar 11 25 Oct 11:12:25 11:16:45 78° 285° (WNW) 11:21:02 145.825 FM, Beacon 2401.500 USB
Sapphire 25 Oct 11:48:03 11:52:19 23° 40° (NE) 11:56:33 437.095 MHz 1200 baud AX-25 AFSK
ZACube-1 25 Oct 12:03:11 12:07:21 51° 288° (WNW) 12:11:24 437.345 MHz
KITSAT 1 25 Oct 12:04:30 12:11:56 43° 111° (ESE) 12:19:23 435.175 FM
UKube-1 25 Oct 12:08:03 12:11:27 22° 296° (WNW) 12:14:49 145.840 MHz, 145.915 MHz
PCSat 25 Oct 12:10:18 12:15:10 32° 46° (NE) 12:19:59 145.825 MHz
HO-68 25 Oct 12:15:31 12:20:55 24° 306° (NW) 12:26:20 435.675 MHz FM
SO-50 25 Oct 12:18:37 12:21:22 16° 110° (ESE) 12:24:10 436.795 FM
AO-Echo 25 Oct 12:34:58 12:36:11 11° 54° (NE) 12:37:24 ?
Oscar 16 25 Oct 12:40:40 12:44:43 24° 63° (ENE) 12:48:46 437.025 USB, Beacon 2401.1428
FUNcube-1 25 Oct 12:48:41 12:51:43 19° 296° (WNW) 12:54:43 145.950 - 145.970 MHz USB
Uribyol 2 25 Oct 13:02:04 13:05:26 18° 59° (ENE) 13:08:48 436.500 FM
ITAMSAT 1 25 Oct 13:08:04 13:11:34 19° 59° (ENE) 13:15:06 435.822 SSB
ISS 25 Oct 13:24:40 13:27:55 55° 145° (SE) 13:31:12 145.800 FM
Sapphire 25 Oct 13:30:53 13:36:20 77° 241° (WSW) 13:41:45 437.095 MHz 1200 baud AX-25 AFSK
Gurwin Techsat 1B 25 Oct 13:31:28 13:34:41 17° 58° (ENE) 13:37:55 435.225 FM
Oscar 19 25 Oct 13:32:43 13:37:49 64° 72° (ENE) 13:42:54 437.125 CW, 437.150 USB
AO-7 25 Oct 13:39:12 13:42:07 12° 37° (NE) 13:45:03 29.400 - 29.500 MHz
JAS-1B 25 Oct 13:39:17 13:45:05 62° 71° (ENE) 13:50:41 435.800 - 435.900 CW/SSB
UOSAT-12 25 Oct 13:41:55 13:42:23 10° 106° (ESE) 13:42:51 437.025 FM, 437.400 FM
TMSAT-1 25 Oct 13:42:35 13:45:36 16° 57° (ENE) 13:48:37 436.925 FM
Oscar 10/S400 25 Oct 13:51:46 14:08:03 31° 151° (SSE) 14:28:04 145.825 - 145.975 CW/USB, Beacon 145.810 USB
AO-27 25 Oct 13:52:06 13:56:59 43° 68° (ENE) 14:01:54 436.795 MHz FM
PCSat 25 Oct 13:53:34 13:58:46 47° 246° (WSW) 14:03:55 145.825 MHz
SO-50 25 Oct 13:56:52 14:01:21 67° 308° (NW) 14:06:01 436.795 FM
KITSAT 1 25 Oct 13:59:20 14:07:11 53° 312° (NW) 14:15:06 435.175 FM
AO-Echo 25 Oct 14:09:05 14:13:58 71° 73° (ENE) 14:19:03 ?
Oscar 16 25 Oct 14:18:46 14:23:46 50° 260° (W) 14:28:47 437.025 USB, Beacon 2401.1428
Uribyol 2 25 Oct 14:39:06 14:44:19 74° 257° (WSW) 14:49:34 436.500 FM
ITAMSAT 1 25 Oct 14:45:20 14:50:31 69° 257° (WSW) 14:55:46 435.822 SSB
Saudisat 1A 25 Oct 15:00:48 15:04:02 19° 37° (NE) 15:07:15 436.775 MHz
ISS 25 Oct 15:01:38 15:04:45 35° 344° (NNW) 15:07:52 145.800 FM
Gurwin Techsat 1B 25 Oct 15:08:41 15:14:00 80° 256° (WSW) 15:19:21 435.225 FM
Oscar 19 25 Oct 15:14:14 15:17:36 17° 270° (W) 15:20:59 437.125 CW, 437.150 USB
UOSAT-12 25 Oct 15:17:03 15:21:41 80° 124° (SE) 15:26:26 437.025 FM, 437.400 FM
Sapphire 25 Oct 15:17:25 15:18:49 11° 259° (W) 15:20:12 437.095 MHz 1200 baud AX-25 AFSK
TMSAT-1 25 Oct 15:19:30 15:24:48 85° 256° (WSW) 15:30:09 436.925 FM
AO-7 25 Oct 15:25:07 15:32:48 45° 60° (ENE) 15:40:31 29.400 - 29.500 MHz
AO-27 25 Oct 15:32:15 15:36:38 27° 266° (W) 15:41:04 436.795 MHz FM
JAS-1B 25 Oct 15:32:23 15:36:19 18° 269° (W) 15:40:11 435.800 - 435.900 CW/SSB
SO-50 25 Oct 15:40:07 15:42:50 15° 330° (NNW) 15:45:35 436.795 FM
AO-Echo 25 Oct 15:50:35 15:53:19 15° 272° (W) 15:56:08 ?
Uosat F 25 Oct 15:55:02 15:59:33 35° 66° (ENE) 16:04:05 435.120 FM
KITSAT 1 25 Oct 15:58:51 16:04:40 21° 339° (NNW) 16:10:30 435.175 FM
JAS-2 25 Oct 16:23:53 16:28:39 24° 56° (NE) 16:33:51 435.800 - 435.900 CW/SSB, 435.910 FM
ISS 25 Oct 16:39:09 16:42:02 26° 4° (N) 16:44:56 145.800 FM
Saudisat 1A 25 Oct 16:39:41 16:44:07 76° 237° (WSW) 16:48:31 436.775 MHz
Hamsat 25 Oct 16:42:37 16:44:10 12° 60° (ENE) 16:45:44 145.90 MHz
Gurwin Techsat 1B 25 Oct 16:53:44 16:54:48 11° 274° (W) 16:55:53 435.225 FM
UOSAT-12 25 Oct 16:58:54 17:02:25 20° 324° (NW) 17:05:58 437.025 FM, 437.400 FM
TMSAT-1 25 Oct 17:03:47 17:05:31 12° 274° (W) 17:07:14 436.925 FM
AO-40 25 Oct 17:13:29 23:05:10 36° 186° (S) 04:29:43 Beacon 2401.320
AO-7 25 Oct 17:17:41 17:25:33 47° 260° (W) 17:33:30 29.400 - 29.500 MHz
Uosat F 25 Oct 17:33:52 17:38:20 32° 264° (W) 17:42:50 435.120 FM
OPAL 25 Oct 17:37:21 17:41:07 21° 95° (E) 17:44:50 ?
KITSAT 1 25 Oct 17:58:41 18:03:42 17° 9° (N) 18:08:43 435.175 FM
JAS-2 25 Oct 18:06:57 18:12:56 72° 258° (WSW) 18:19:48 435.800 - 435.900 CW/SSB, 435.910 FM
Hamsat 25 Oct 18:15:20 18:19:32 76° 258° (WSW) 18:23:44 145.90 MHz
ISS 25 Oct 18:15:54 18:19:12 55° 24° (NNE) 18:22:30 145.800 FM
SO-67 25 Oct 18:57:22 19:00:33 37° 72° (ENE) 19:03:46 435.3500 MHz FM
HO-68 25 Oct 19:13:05 19:17:28 18° 49° (NE) 19:21:52 435.675 MHz FM
OPAL 25 Oct 19:15:28 19:20:17 50° 292° (WNW) 19:25:02 ?
STRAND 1 25 Oct 19:22:27 19:26:58 30° 95° (E) 19:31:26 ?
ISS 25 Oct 19:52:54 19:55:43 26° 222° (SW) 19:58:33 145.800 FM
KITSAT 1 25 Oct 19:54:45 20:02:00 34° 38° (NE) 20:09:12 435.175 FM
JAS-2 25 Oct 19:57:42 19:59:30 11° 280° (W) 20:01:21 435.800 - 435.900 CW/SSB, 435.910 FM
SO-67 25 Oct 20:31:51 20:33:42 14° 269° (W) 20:35:33 435.3500 MHz FM
Oscar 11 25 Oct 20:36:08 20:37:53 12° 60° (ENE) 20:39:39 145.825 FM, Beacon 2401.500 USB
SO-50 25 Oct 20:46:17 20:50:37 32° 43° (NE) 20:54:59 436.795 FM
HO-68 25 Oct 20:56:54 21:04:02 75° 70° (ENE) 21:11:13 435.675 MHz FM
STRAND 1 25 Oct 21:01:28 21:06:12 38° 293° (WNW) 21:10:55 ?
ZACube-1 25 Oct 21:26:21 21:29:31 19° 63° (ENE) 21:32:39 437.345 MHz
UKube-1 25 Oct 21:28:36 21:32:45 45° 70° (ENE) 21:36:55 145.840 MHz, 145.915 MHz
KITSAT 1 25 Oct 21:50:04 21:58:08 75° 241° (WSW) 22:06:09 435.175 FM
UOSAT-12 25 Oct 22:05:20 22:09:04 22° 37° (NE) 22:12:45 437.025 FM, 437.400 FM
RS-15 25 Oct 22:05:42 22:16:02 49° 112° (ESE) 22:26:18 29.354 - 29.394 USB, Beacon 29.352 USB
Oscar 11 25 Oct 22:09:08 22:13:28 78° 257° (WSW) 22:17:49 145.825 FM, Beacon 2401.500 USB
FUNcube-1 25 Oct 22:09:24 22:13:46 47° 71° (ENE) 22:18:06 145.950 - 145.970 MHz USB
SO-50 25 Oct 22:26:43 22:31:18 43° 242° (WSW) 22:35:55 436.795 FM
HO-68 25 Oct 22:47:01 22:52:24 23° 269° (W) 22:57:51 435.675 MHz FM
ZACube-1 25 Oct 23:01:04 23:05:33 52° 260° (W) 23:09:59 437.345 MHz
UKube-1 25 Oct 23:06:05 23:09:10 19° 267° (W) 23:12:15 145.840 MHz, 145.915 MHz
MaSat-1 25 Oct 23:40:47 23:44:33 37° 113° (ESE) 23:48:00 437.345 MHz
UOSAT-12 25 Oct 23:44:58 23:49:41 69° 237° (WSW) 23:54:18 437.025 FM, 437.400 FM
FUNcube-1 25 Oct 23:47:04 23:50:22 19° 268° (W) 23:53:38 145.950 - 145.970 MHz USB
KITSAT 1 25 Oct 23:47:48 23:52:09 16° 261° (W) 23:56:30 435.175 FM
RS-15 26 Oct 00:17:32 00:28:15 57° 316° (NW) 00:39:04 29.354 - 29.394 USB, Beacon 29.352 USB
MaSat-1 26 Oct 01:17:08 01:20:13 21° 307° (NW) 01:23:04 437.345 MHz
JAS-1B 26 Oct 01:20:36 01:24:41 16° 90° (E) 01:29:06 435.800 - 435.900 CW/SSB
Oscar 19 26 Oct 01:43:12 01:46:48 19° 91° (E) 01:50:23 437.125 CW, 437.150 USB
AO-27 26 Oct 02:04:58 02:07:08 12° 88° (E) 02:09:17 436.795 MHz FM
AO-Echo 26 Oct 02:14:51 02:18:53 22° 92° (E) 02:22:53 ?
Oscar 16 26 Oct 02:28:13 02:33:12 49° 100° (E) 02:38:09 437.025 USB, Beacon 2401.1428
RS-15 26 Oct 02:34:32 02:43:37 29° 348° (NNW) 02:52:53 29.354 - 29.394 USB, Beacon 29.352 USB
Uribyol 2 26 Oct 02:50:05 02:54:49 34° 96° (E) 02:59:29 436.500 FM
PCSat 26 Oct 02:56:11 02:59:27 16° 104° (ESE) 03:02:44 145.825 MHz
ITAMSAT 1 26 Oct 02:56:21 03:01:11 36° 97° (E) 03:05:58 435.822 SSB
JAS-1B 26 Oct 03:09:15 03:15:55 86° 105° (ESE) 03:23:55 435.800 - 435.900 CW/SSB
Oscar 19 26 Oct 03:21:30 03:26:32 58° 289° (WNW) 03:31:32 437.125 CW, 437.150 USB
Gurwin Techsat 1B 26 Oct 03:23:05 03:27:57 35° 96° (E) 03:32:47 435.225 FM
TMSAT-1 26 Oct 03:33:36 03:38:22 33° 96° (E) 03:43:05 436.925 FM
AO-27 26 Oct 03:42:05 03:47:21 88° 286° (WNW) 03:52:34 436.795 MHz FM
AO-Echo 26 Oct 03:52:45 03:57:57 56° 289° (WNW) 04:03:08 ?
Oscar 16 26 Oct 04:08:13 04:12:15 24° 297° (WNW) 04:16:17 437.025 USB, Beacon 2401.1428
Sapphire 26 Oct 04:14:25 04:19:46 67° 118° (ESE) 04:25:10 437.095 MHz 1200 baud AX-25 AFSK
Uribyol 2 26 Oct 04:29:35 04:34:15 34° 294° (WNW) 04:38:53 436.500 FM
ITAMSAT 1 26 Oct 04:35:59 04:40:36 32° 295° (WNW) 04:45:10 435.822 SSB
PCSat 26 Oct 04:36:46 04:42:11 78° 303° (WNW) 04:47:39 145.825 MHz
RS-15 26 Oct 04:50:38 05:00:20 33° 23° (NNE) 05:10:18 29.354 - 29.394 USB, Beacon 29.352 USB
OPAL 26 Oct 04:53:42 04:58:39 50° 68° (ENE) 05:03:33 ?
JAS-1B 26 Oct 05:01:24 05:06:00 21° 302° (WNW) 05:11:07 435.800 - 435.900 CW/SSB
Gurwin Techsat 1B 26 Oct 05:03:07 05:07:52 34° 294° (WNW) 05:12:36 435.225 FM
TMSAT-1 26 Oct 05:13:28 05:18:18 36° 293° (WNW) 05:23:05 436.925 FM
JAS-2 26 Oct 05:14:27 05:19:56 20° 86° (E) 05:25:23 435.800 - 435.900 CW/SSB, 435.910 FM
AO-7 26 Oct 05:16:13 05:24:21 55° 102° (ESE) 05:32:28 29.400 - 29.500 MHz
AO-27 26 Oct 05:23:26 05:26:06 14° 304° (NW) 05:28:45 436.795 MHz FM
Uosat F 26 Oct 05:38:42 05:43:45 68° 103° (ESE) 05:48:46 435.120 FM
Sapphire 26 Oct 05:59:16 06:03:41 25° 318° (NW) 06:08:07 437.095 MHz 1200 baud AX-25 AFSK
Hamsat 26 Oct 05:59:56 06:02:36 16° 91° (E) 06:05:16 145.90 MHz
PCSat 26 Oct 06:22:51 06:26:31 18° 324° (NW) 06:30:11 145.825 MHz
OPAL 26 Oct 06:33:46 06:37:46 23° 265° (W) 06:41:45 ?
STRAND 1 26 Oct 06:40:12 06:45:10 53° 70° (ENE) 06:50:11 ?
Saudisat 1A 26 Oct 06:49:25 06:52:13 17° 111° (ESE) 06:55:01 436.775 MHz
JAS-2 26 Oct 06:57:59 07:05:49 89° 105° (ESE) 07:13:39 435.800 - 435.900 CW/SSB, 435.910 FM
RS-15 26 Oct 07:03:36 07:14:47 77° 52° (NE) 07:26:25 29.354 - 29.394 USB, Beacon 29.352 USB
AO-7 26 Oct 07:09:23 07:16:54 40° 302° (WNW) 07:24:26 29.400 - 29.500 MHz
Uosat F 26 Oct 07:18:40 07:22:01 18° 301° (WNW) 07:25:21 435.120 FM
Hamsat 26 Oct 07:34:46 07:38:49 48° 288° (WNW) 07:42:52 145.90 MHz
SO-67 26 Oct 07:51:20 07:54:30 33° 97° (E) 07:57:38 435.3500 MHz FM
STRAND 1 26 Oct 08:20:49 08:24:40 21° 268° (W) 08:28:34 ?
HO-68 26 Oct 08:26:14 08:27:58 11° 84° (E) 08:29:42 435.675 MHz FM
Saudisat 1A 26 Oct 08:26:58 08:31:19 62° 309° (NW) 08:35:42 436.775 MHz
JAS-2 26 Oct 08:44:09 08:49:55 24° 304° (NW) 08:55:46 435.800 - 435.900 CW/SSB, 435.910 FM
AO-7 26 Oct 09:05:37 09:07:24 11° 326° (NW) 09:09:10 29.400 - 29.500 MHz
RS-15 26 Oct 09:16:46 09:26:12 33° 254° (WSW) 09:36:01 29.354 - 29.394 USB, Beacon 29.352 USB
MaSat-1 26 Oct 09:24:32 09:27:08 59° 245° (WSW) 09:29:31 437.345 MHz
SO-67 26 Oct 09:25:00 09:27:14 16° 294° (WNW) 09:29:27 435.3500 MHz FM
